COSMOS 2461 (735)

Last updated on July 31, 2020, 8:07 a.m. UTC

1 36401U 10007B   20202.13250289 -.00000024  00000-0  00000+0 0  9994
2 36401  65.8861  26.7696 0009126  74.0721 307.9879  2.13102009 80835
UTC
Height (km)
Latitude
Longitude
Inclination
Orbital Period
UTC large
Height (km)
Speed (km/s)
/
Latitude / Longitude
Inclination (degrees)
Orbital Period (minutes)
Azimuth
Elevation
Range (km)
Doppler Factor
iOS Compass Heading
iOS Angle

Next 30 passes for location: Hong Kong

Rise time Rise Azimuth (degrees) Set time Set Azimuth (degrees) Duration Max altitude (degrees)

No matching passes for this satellites